www.pogodaiklimat.ru
Время
и дата
10:54 22.05
11:02 22.05
11:26 22.05
11:36 22.05
11:50 22.05
11:54 22.05
12:06 22.05
12:39 22.05
12:54 22.05
13:17 22.05
13:22 22.05
13:32 22.05
13:43 22.05
13:48 22.05
13:54 22.05
14:54 22.05
15:24 22.05
15:54 22.05
16:54 22.05
17:54 22.05
18:54 22.05
19:50 22.05
19:54 22.05
20:54 22.05
21:54 22.05
22:54 22.05
23:43 22.05
23:54 22.05
00:01 23.05
00:54 23.05
01:54 23.05
02:54 23.05
03:54 23.05
04:54 23.05
05:54 23.05
06:54 23.05
07:54 23.05
08:54 23.05
09:54 23.05
10:54 23.05
11:54 23.05
12:54 23.05
13:54 23.05
14:54 23.05
15:54 23.05
16:54 23.05
17:54 23.05
18:54 23.05
Ветер
(напр.,м/с)
Видим. Явления Облачность Т
(С)
Тd
(С)
f
(%)
Тe
(С)
Тes
(С)
Комфортность P
(гПа)
Po
(гПа)
Тmin
(С)
Tmax
(С)
R
(мм)
R24
(мм)
S
(см)
ЮЗ 4
{6}
16 км 10/10 300 м +18.3 +16.1 87 +18 +18 1015.8 990.6
ЮЗ 4
{5}
11 км 10/10 240 м +18.3 +16.7 90 +18 +18 990.6
З 3
{5}
4 км слабый дождь, дымка 10/10 210 м +17.8 +17.2 96 +17 +17 991.0
СЗ 3
{4}
10 км слабый дождь, дымка 10/10 210 м +17.8 +16.7 93 +17 +17 991.3
СЗ 4
{5}
16 км слабый дождь 10/10 150 м +14.0 +13.0 94 +11 +11 992.3
СЗ 3
{5}
16 км слабый дождь 10/10 150 м +13.3 +12.8 97 +11 +11 1017.5 992.3
С 4
{5}
4 км слабый дождь, дымка 10/10 120 м +12.2 +11.7 97 +9 +9 992.9
С 3 5 км слабый дождь, дымка 10/10 150 м +11.1 +10.6 97 +8 +8 993.6
С 2 5 км слабый дождь, дымка 10/10 180 м +11.7 +10.6 93 +9 +9 1019.2 993.9 +11.1 +21.1 1.0
СЗ 1 3 км слабый дождь, дымка 10/10 180 м +11.7 +10.6 93 +10 +10 994.6
С 2 1 км дождь, дымка 10/10 180 м +11.7 +10.6 93 +9 +9 994.6
СЗ 1 2 км дождь, дымка 10/10 240 м +11.7 +10.6 93 +10 +10 994.6
штиль 0 4 км слабый дождь, дымка 10/10 180 м +11.7 +11.1 96 +11 +11 994.6
штиль 0 5 км слабый дождь, дымка 10/10 180 м +12.0 +11.0 94 +11 +11 994.6
З 1 5 км слабый дождь, дымка 10/10 180 м +11.7 +10.6 93 +10 +10 1020.0 994.6
З 1 16 км 10/8 180 м
[Ac]
+11.7 +10.6 93 +10 +11 1020.2 994.9
З 1 16 км 10/5 180 м
[Ac]
+12.2 +10.6 90 +11 +13 994.9
З 2 16 км 10/5 210 м
[Ac]
+12.8 +10.6 86 +11 +13 1020.7 995.3 1.5
СЗ 2 16 км 8/5 300 м
[Ac Ci]
+14.4 +10.0 75 +13 +15 1021.7 996.2
ЮЗ 2 16 км 8/5 660 м
[Ac Ci]
+13.9 +11.1 83 +12 +13 1021.9 996.6
ЮЗ 1 16 км 8/8 1110 м
[Ac Ci]
+12.8 +10.6 86 +11 +12 1022.1 996.6 +11.7 +15.0 1.5
ЮЗ 2 16 км 8/8 210 м
[Ci]
+12.0 +11.0 94 +10 +10 997.6
ЮЗ 3 16 км 8/8 210 м
[Ci]
+12.2 +11.1 93 +9 +9 1023.1 997.6
ЮЗ 2 16 км 8/8 450 м +11.7 +10.6 93 +9 +9 1023.9 998.6
СЗ 1 16 км 8/8 600 м +11.1 +10.0 93 +10 +10 1024.1 998.6
З 1 16 км 2/2 810 м
[Ac]
+11.1 +8.3 83 +10 +10 1024.6 999.2
штиль 0 16 км 8/8 810 м +10.6 +8.3 86 +10 +10 999.2
З 1 16 км 8/8 810 м +10.0 +7.8 86 +8 +8 1025.3 999.5
З 1 16 км 5/5 810 м +10.0 +7.8 86 +8 +8 999.9
СЗ 1 16 км 5/2 900 м
[Ci]
+9.4 +7.2 86 +8 +8 1025.7 999.9 +9.4 +12.8
СЗ 1 16 км 8/2 900 м
[Ci]
+9.4 +7.2 86 +8 +8 1025.9 1000.2
С 1 16 км 8/2 900 м
[Ci]
+8.9 +6.7 86 +7 +7 1026.1 1000.2
СЗ 1 16 км 8/0 2100 м
[Ac Ci]
+8.3 +6.7 90 +6 +6 1026.0 1000.2
З 1 16 км 8/0 2250 м
[Ac Ci]
+8.3 +6.1 86 +6 +6 1026.4 1000.5
штиль 0 16 км 8/0 2250 м
[Ac Ci]
+8.9 +6.7 86 +8 +8 1026.7 1000.9
нст 1 16 км 8/0 2250 м
[Ac Ci]
+10.0 +4.4 68 +8 +9 1026.9 1001.2 +8.3 +10.0 2.5
штиль 0 16 км 8/0 2250 м
[Ac Ci]
+11.1 +4.4 63 +11 +14 1027.4 1001.5
штиль 0 16 км 8/0 2250 м
[Ac Ci]
+12.8 +5.6 62 +13 +19 1027.0 1001.2
нст 1 16 км 8/2 1080 м
[Ci]
+13.9 +4.4 53 +14 +19 1027.2 1001.5
штиль 0 16 км 8/2 1230 м
[Ci]
+14.4 +4.4 51 +14 +24 1027.1 1001.2
штиль 0 16 км 8/2 1320 м
[Ci]
+15.6 +5.6 51 +16 +27 1026.8 1000.9
С 2 16 км 8/2 1380 м
[Ci]
+16.7 +5.0 46 +16 +23 1026.1 1000.5 +10.0 +16.7
С 2 16 км 8/2 1380 м
[Ac Ci]
+16.1 +5.6 50 +15 +22 1026.0 1000.2
С 1 16 км 8/5 1320 м
[Ac Ci]
+16.1 +6.7 54 +16 +21 1025.8 1000.2
С 1 16 км 10/10 1470 м +15.6 +5.0 49 +16 +16 1025.5 999.9
СВ 1 16 км 10/8 1650 м
[Ac Ci]
+15.6 +5.0 49 +15 +16 1025.3 999.5
С 1 16 км 10/2 1500 м
[Ac Ci]
+15.6 +5.0 49 +16 +18 1025.1 999.5
СВ 1 16 км 10/2 1500 м
[Ac Ci]
+14.4 +3.9 49 +14 +14 1025.3 999.5 +14.4 +16.7
Местоположение метеостанции Greater Buffalo International Airport: широта 42.9486 долгота -78.7369 высота над уровнем моря 211 м.
В архиве по умолчанию представлена погода в Баффало за последние 1-2 суток. Обновление информации о фактической погоде в базе происходит ежечасно! Архивные данные за месяц целиком и за предыдущие месяцы Вы можете получить, выбрав интересующий диапазон дат из раскрывающегося списка и нажав кнопку "Ввод!".
Внимание! Архив погоды МЕТАР в базе сайта по станциям, не включенным в климатический монитор, хранится не более 60 дней. Нет смысла пытаться выбрать более раннюю дату.
*Определитесь, кто Вы:
Внимание! Время в таблицах - местное (без учета летнего времени). Для получения всемирного времени необходимо вычесть поправку, которая равна -5 ч.
Смотрите также архив погоды в соседних городах и на ближайших метеорологических станциях:
Партнеры нашего сайта:      
Пояснения к столбцам:
  • Ветер - указаны скорость ветра в м/с - средняя за 10 мин, порывы в срок и между сроками (в фигурных скобках) и направление, откуда дует ветер: С - северный,
  • СВ - северо-восточный, В - восточный, ЮВ - юго-восточный, Ю - южный, ЮЗ - юго-западный, З - западный, СЗ - северо-западный.
  • Видимость - горизонтальная дальность видимости в метрах или километрах. При видимости от 1 до 10 км при отсутствии осадков обычно наблюдается дымка, при ухудшении видимости до 1 км и менее - туман. В сухую погоду видимость может ухудшаться дымом, пылью или мглою.
  • Явления - указаны атмосферные явления, наблюдавшиеся в срок или в последний час перед сроком; фигурными скобками обозначены явления, наблюдавшиеся между сроками (за 1-3 часа до срока); квадратными скобками обозначены град или гололедные отложения с указанием их диаметра в мм.
  • Облачность - указаны через наклонную черту общая и нижняя облачность в баллах и высота нижней границы облаков в метрах; квадратными скобками обозначены формы облаков: Ci - перистые, Cs - перисто-слоистые, Cc - перисто-кучевые, Ac - высококучевые, As - высокослоистые, Sc - слоисто-кучевые, Ns - слоисто-дождевые, Cu - кучевые, Cb - кучево-дождевые. Подробнее классификацию облаков см. в Атласе облаков (PDF).
  • T - Температура воздуха - температура, измеренная на высоте 2 м над землей.
  • Td - Температура точки росы - температура, при понижении до которой содержащийся в воздухе водяной пар достигнет насыщения.
  • f - Относительная влажность воздуха - влажноcть воздуха, измеренная на высоте 2 м над землей.
  • Te - Эффективная температура - температура, которую ощущает одетый по сезону человек в тени. Характеристика душности погоды. При расчете учитывается влияние влажности воздуха и скорости ветра на теплоощущения человека.
  • Tes - Эффективная температура на солнце - температура, которую ощущает человек, с поправкой на солнечный нагрев. Характеристика знойности погоды. Зависит от высоты солнца над горизонтом, облачности и скорости ветра. Ночью, в пасмурную погоду, а также при ветре 12 м/с и более поправка равна нулю.
  • P - Атмосферное давление - приведенное к уровню моря атмосферное давление.
  • Po - Атмосферное давление - измеренное на уровне метеостанции атмосферное давление.
  • Tmin - Минимальная температура - минимум температуры воздуха на высоте 2 м над землей.
  • Tmax - Максимальная температура - максимум температуры воздуха на высоте 2 м над землей.
  • R - Количество осадков - Количество выпавших осадков за период времени, мм. При наведении курсора мыши на число - период времени, за который выпало указанное количество осадков.
  • R24 - Количество осадков - Количество выпавших осадков за 24 часа, мм.
  • S - Снежный покров - Высота снежного покрова, см. При наведении курсора мыши на число - состояние снежного покрова и степень покрытия местности в баллах.